Location: Aranbee
(34.0885°N, 118.2342°W)
Time: 13:47:15
(UTC+00:00)

Tiros 1 - Pass Details

Date: 28 November 2020
Orbit: 630 x 663 km, 48.4° (Epoch: 21 January)

Event Time Altitude Azimuth Distance (km) Brightness Sun altitude
Rises 05:16:18 0° 311° (NW) 2,972 - -55.8°
Reaches altitude 10° 05:18:43 10° 317° (NW) 2,053 - -56.3°
Maximum altitude 05:23:19 51° 33° (NNE) 810 - -57.2°
Drops below altitude 10° 05:27:52 10° 110° (ESE) 2,025 - -58.1°
Sets 05:30:14 0° 115° (ESE) 2,926 - -58.6°
